Location: Home
(42.5358°N, 72.7383°W)
Time: 11:06:38
(UTC-05:00)

S-56A Canister/Altair - Pass Details

Date: 02 December 2021
Orbit: 634 x 2499 km, 38.9° (Epoch: 22 January)

Event Time Altitude Azimuth Distance (km) Brightness Sun altitude
Rises 01:07:16 0° 246° (WSW) 4,816 - -62.6°
Reaches altitude 10° 01:11:00 10° 243° (WSW) 3,522 - -62.1°
Maximum altitude 01:19:07 55° 169° (S) 1,231 - -60.9°
Drops below altitude 10° 01:24:37 10° 92° (E) 2,415 - -60.1°
Sets 01:26:46 0° 88° (E) 3,205 - -59.8°
